Wahoo, NE

1:05 AM CST on February 13, 2016 (GMT -0600)
Wahoo Municipal

Weather History for KAHQ - September, 2013

Change the Weather History Date:

Sunday, September 1, 2013

  Actual Average Record
Temperature  
Mean Temperature 74 °F -  
Max Temperature 83 °F 86 °F 101 °F (1990)
Min Temperature 63 °F 60 °F 44 °F (1965)
Cooling Degree Days 8    
Growing Degree Days 24 (Base 50)    
Moisture  
Dew Point 62 °F    
Average Humidity 69    
Maximum Humidity 92    
Minimum Humidity 40    
Precipitation  
Precipitation 0.00 in - - ()
Sea Level Pressure  
Sea Level Pressure 29.94 in    
Wind  
Wind Speed 6 mph (NNW)    
Max Wind Speed 16 mph    
Max Gust Speed 24 mph    
Visibility 10 miles    
Events      
Averages and records for this station are not official NWS values.
T = Trace of Precipitation, MM = Missing Value Source: NWS Daily Summary

Daily Weather History Graph

Daily Weather History Graph

Search for Another Location

Airport or City:

Trip Planner

Search our weather history database for the weather conditions in past years. The results will help you decide how hot, cold, wet, or windy it might be!

Date:

Astronomy

Sep. 01, 2013 Rise Set
Actual Time 6:53 AM CDT 7:58 PM CDT
Civil Twilight 6:24 AM CDT 8:26 PM CDT
Nautical Twilight 5:50 AM CDT 9:00 PM CDT
Astronomical Twilight 5:15 AM CDT 9:35 PM CDT
Moon 3:14 AM CDT (9/1) 5:38 PM CDT (9/1)
Length of Visible Light 14h 02m
Length of Day
13h 05m
Waning Crescent, 13% of the Moon is Illuminated
Sep 1
Waning Crescent
Sep 5
New
Sep 12
First Quarter
Sep 19
Full
Sep 26
Last Quarter

Hourly Weather History & Observations

Time (CDT) Temp. Heat Index Dew Point Humidity Pressure Visibility Wind Dir Wind Speed Gust Speed Precip Events Conditions
12:15 AM 73.9 °F - 69.3 °F 85% 29.80 in 10.0 mi SSE 3.5 mph - N/A   Clear
12:35 AM 72.9 °F - 68.9 °F 87% 29.79 in 10.0 mi SSE 3.5 mph - N/A   Clear
12:55 AM 72.5 °F - 68.4 °F 87% 29.78 in 10.0 mi SE 3.5 mph - N/A   Clear
1:15 AM 72.1 °F - 68.2 °F 87% 29.79 in 10.0 mi Calm Calm - N/A   Clear
1:35 AM 72.7 °F - 68.4 °F 86% 29.80 in 10.0 mi Calm Calm - N/A   Clear
1:55 AM 73.6 °F - 68.9 °F 85% 29.80 in 10.0 mi Calm Calm - N/A   Clear
2:15 AM 73.4 °F - 69.8 °F 88% 29.79 in 10.0 mi SE 3.5 mph - N/A   Mostly Cloudy
2:35 AM 75.2 °F - 70.7 °F 86% 29.83 in 10.0 mi West 12.7 mph 21.9 mph N/A   Mostly Cloudy
2:55 AM 77.4 °F - 69.8 °F 77% 29.82 in 10.0 mi NW 6.9 mph - N/A   Mostly Cloudy
3:15 AM 75.9 °F - 69.6 °F 81% 29.81 in 10.0 mi NNW 13.8 mph 20.7 mph N/A   Scattered Clouds
3:35 AM 74.5 °F - 69.8 °F 85% 29.83 in 10.0 mi North 11.5 mph - N/A   Clear
3:55 AM 74.3 °F - 69.8 °F 86% 29.83 in 10.0 mi North 12.7 mph - N/A   Scattered Clouds
4:15 AM 72.5 °F - 66.7 °F 82% 29.83 in 10.0 mi NNE 12.7 mph - N/A   Scattered Clouds
4:35 AM 71.2 °F - 67.1 °F 87% 29.85 in 10.0 mi NNE 13.8 mph 19.6 mph N/A   Scattered Clouds
4:55 AM 70.9 °F - 67.3 °F 88% 29.85 in 10.0 mi ENE 9.2 mph - N/A   Mostly Cloudy
5:15 AM 70.9 °F - 67.5 °F 89% 29.88 in 10.0 mi NNE 4.6 mph - N/A   Overcast
5:35 AM 70.9 °F - 67.5 °F 89% 29.88 in 10.0 mi NNE 3.5 mph - N/A   Overcast
5:55 AM 70.2 °F - 67.5 °F 91% 29.89 in 10.0 mi North 4.6 mph - N/A   Overcast
6:15 AM 69.8 °F - 67.3 °F 92% 29.91 in 10.0 mi North 3.5 mph - N/A   Overcast
6:35 AM 69.8 °F - 67.1 °F 91% 29.93 in 10.0 mi Calm Calm - N/A   Overcast
6:55 AM 68.9 °F - 66.2 °F 91% 29.94 in 10.0 mi Calm Calm - N/A   Scattered Clouds
7:15 AM 68.9 °F - 66.0 °F 90% 29.96 in 10.0 mi Calm Calm - N/A   Scattered Clouds
7:35 AM 69.1 °F - 65.7 °F 89% 29.97 in 10.0 mi Calm Calm - N/A   Scattered Clouds
7:55 AM 70.0 °F - 66.4 °F 88% 29.97 in 10.0 mi West 3.5 mph - N/A   Clear
8:15 AM 71.6 °F - 66.0 °F 82% 29.98 in 10.0 mi Calm Calm - N/A   Clear
8:35 AM 71.8 °F - 64.8 °F 78% 29.98 in 10.0 mi Calm Calm - N/A   Clear
8:55 AM 72.1 °F - 64.6 °F 77% 29.98 in 10.0 mi Calm Calm - N/A   Clear
9:15 AM 73.4 °F - 64.9 °F 75% 29.98 in 10.0 mi Calm Calm - N/A   Clear
9:35 AM 73.9 °F - 64.2 °F 72% 29.98 in 10.0 mi NNW 3.5 mph - N/A   Clear
9:55 AM 74.7 °F - 64.9 °F 72% 29.98 in 10.0 mi Calm Calm - N/A   Clear
10:15 AM 75.7 °F - 62.4 °F 63% 29.98 in 10.0 mi NNE 6.9 mph - N/A   Clear
10:35 AM 76.8 °F - 62.4 °F 61% 29.98 in 10.0 mi NNW 5.8 mph - N/A   Clear
10:55 AM 77.7 °F - 59.9 °F 54% 29.98 in 10.0 mi North 9.2 mph - N/A   Clear
11:15 AM 78.3 °F - 59.5 °F 52% 29.98 in 10.0 mi North 8.1 mph - N/A   Clear
11:35 AM 79.3 °F - 59.4 °F 50% 29.97 in 10.0 mi NNW 8.1 mph - N/A   Clear
11:55 AM 79.9 °F - 58.5 °F 48% 29.97 in 10.0 mi North 10.4 mph - N/A   Clear
12:15 PM 80.2 °F 80.5 °F 57.0 °F 45% 29.97 in 10.0 mi North 15.0 mph 19.6 mph N/A   Clear
12:35 PM 80.6 °F 80.7 °F 56.8 °F 44% 29.97 in 10.0 mi North 11.5 mph 21.9 mph N/A   Clear
12:55 PM 80.8 °F 81.1 °F 58.5 °F 46% 29.97 in 10.0 mi NNW 12.7 mph 19.6 mph N/A   Clear
1:15 PM 81.3 °F 81.6 °F 58.5 °F 46% 29.97 in 10.0 mi North 15.0 mph 23.0 mph N/A   Clear
1:35 PM 82.0 °F 81.8 °F 57.2 °F 43% 29.97 in 10.0 mi NNW 12.7 mph - N/A   Clear
1:55 PM 82.2 °F 81.9 °F 57.2 °F 42% 29.97 in 10.0 mi NW 15.0 mph 23.0 mph N/A   Clear
2:15 PM 82.8 °F 82.2 °F 56.8 °F 41% 29.96 in 10.0 mi NNW 11.5 mph 21.9 mph N/A   Clear
2:35 PM 83.1 °F 82.7 °F 58.1 °F 42% 29.96 in 10.0 mi NNW 11.5 mph 19.6 mph N/A   Clear
2:55 PM 82.9 °F 82.4 °F 56.8 °F 41% 29.96 in 10.0 mi NNW 16.1 mph 21.9 mph N/A   Clear
3:15 PM 82.4 °F 81.9 °F 56.3 °F 41% 29.96 in 10.0 mi NNW 15.0 mph 24.2 mph N/A   Clear
3:35 PM 82.6 °F 82.0 °F 55.8 °F 40% 29.96 in 10.0 mi NNW 15.0 mph 21.9 mph N/A   Clear
3:55 PM 82.4 °F 81.9 °F 56.3 °F 41% 29.95 in 10.0 mi North 13.8 mph 23.0 mph N/A   Clear
4:15 PM 82.4 °F 81.9 °F 56.7 °F 41% 29.96 in 10.0 mi NNW 13.8 mph 20.7 mph N/A   Clear
4:35 PM 82.2 °F 81.8 °F 56.5 °F 41% 29.96 in 10.0 mi North 10.4 mph 21.9 mph N/A   Clear
4:55 PM 81.9 °F 81.4 °F 56.1 °F 41% 29.96 in 10.0 mi North 15.0 mph 21.9 mph N/A   Clear
5:15 PM 81.3 °F 81.2 °F 57.0 °F 43% 29.96 in 10.0 mi North 12.7 mph 23.0 mph N/A   Clear
5:35 PM 80.8 °F 81.0 °F 57.6 °F 45% 29.96 in 10.0 mi North 12.7 mph 20.7 mph N/A   Clear
5:55 PM 80.6 °F 80.8 °F 57.7 °F 45% 29.97 in 10.0 mi North 12.7 mph 17.3 mph N/A   Scattered Clouds
6:15 PM 79.5 °F - 57.0 °F 46% 29.97 in 10.0 mi North 13.8 mph - N/A   Clear
6:35 PM 78.8 °F - 57.9 °F 49% 29.97 in 10.0 mi North 11.5 mph - N/A   Clear
6:55 PM 77.5 °F - 59.2 °F 53% 29.97 in 10.0 mi North 8.1 mph - N/A   Clear
7:15 PM 76.1 °F - 59.5 °F 56% 29.97 in 10.0 mi North 8.1 mph - N/A   Clear
7:35 PM 73.9 °F - 59.4 °F 60% 29.97 in 10.0 mi North 6.9 mph - N/A   Clear
7:55 PM 70.9 °F - 60.1 °F 69% 29.98 in 10.0 mi North 6.9 mph - N/A   Clear
8:15 PM 68.0 °F - 60.8 °F 78% 29.98 in 10.0 mi NNW 6.9 mph - N/A   Clear
8:35 PM 67.1 °F - 60.8 °F 80% 29.98 in 10.0 mi NNW 3.5 mph - N/A   Clear
8:55 PM 67.1 °F - 59.9 °F 78% 29.99 in 10.0 mi NNW 3.5 mph - N/A   Clear
9:15 PM 66.4 °F - 59.4 °F 78% 30.00 in 10.0 mi NNW 3.5 mph - N/A   Clear
9:35 PM 66.9 °F - 59.2 °F 76% 30.00 in 10.0 mi NW 4.6 mph - N/A   Clear
9:55 PM 64.6 °F - 58.6 °F 81% 30.01 in 10.0 mi WNW 5.8 mph - N/A   Clear
10:15 PM 65.3 °F - 59.2 °F 81% 30.01 in 10.0 mi NW 5.8 mph - N/A   Clear
10:35 PM 64.9 °F - 59.0 °F 81% 30.02 in 10.0 mi NW 5.8 mph - N/A   Clear
10:55 PM 64.9 °F - 59.0 °F 81% 30.02 in 10.0 mi NW 8.1 mph - N/A   Clear
11:15 PM 64.4 °F - 59.0 °F 83% 30.02 in 10.0 mi NW 6.9 mph - N/A   Clear
11:35 PM 64.8 °F - 59.0 °F 82% 30.03 in 10.0 mi NW 8.1 mph - N/A   Clear
11:55 PM 63.7 °F - 58.8 °F 84% 30.02 in 10.0 mi NNW 5.8 mph - N/A   Clear